GW5880 Weather Reports


Display with metric or nautical units.
time (UTC)temp
F
wind
direction
speed
MPH
gust
MPH
rain 1hr
in
rain 24hr
in
rain mn
in
humidity
%
barometer
mb
20260509114458 46 219 2.0 6.0 0.05 0.12 0.12 96 1009.5
20260509113957 46 238 1.0 3.0 0.07 0.11 0.11 96 1009.3
20260509113454 46 178 3.0 3.0 0.12 0.10 0.10 96 1009.4
20260509112950 46 155 1.0 2.0 0.12 0.09 0.09 96 1009.4
20260509112448 46 176 4.0 4.0 0.05 0.08 0.08 96 1009.5
20260509111944 46 156 3.0 4.0 0.07 0.07 0.07 95 1009.6
20260509111442 46 203 2.0 2.0 0.07 0.07 0.07 95 1009.4
20260509110939 46 203 2.0 6.0 0.05 0.06 0.06 95 1009.5
20260509110435 46 145 3.0 7.0 0.05 0.06 0.06 95 1009.5
20260509105933 46 138 4.0 7.0 0.00 0.05 0.05 95 1009.4
20260509105431 46 149 2.0 4.0 0.07 0.05 0.05 95 1009.3
20260509104928 46 155 4.0 6.0 0.05 0.04 0.04 95 1009.2
20260509104425 46 219 2.0 4.0 0.12 0.04 0.04 94 1009.2
20260509103922 46 136 2.0 6.0 0.07 0.03 0.03 94 1009.0
20260509103419 46 128 3.0 6.0 0.05 0.02 0.02 94 1009.4
20260509102918 46 113 6.0 8.0 0.05 0.02 0.02 94 1009.1
20260509102415 46 147 5.0 8.0 0.07 0.01 0.01 93 1008.9
20260509101911 46 116 6.0 8.0 0.07 0.01 0.01 93 1009.0
20260509101407 46 140 7.0 11.0 0.00 0.00 0.00 93 1008.8
20260509100905 46 166 4.0 8.0 0.00 0.00 0.00 92 1008.8
20260509100401 46 134 5.0 8.0 0.00 0.00 0.00 91 1008.9
20260509095858 46 117 5.0 8.0 0.00 0.00 0.00 90 1009.1
20260509095356 46 198 4.0 6.0 0.00 0.00 0.00 90 1008.9
20260509094852 46 132 6.0 8.0 0.00 0.00 0.00 89 1009.0
20260509094349 46 142 6.0 7.0 0.00 0.00 0.00 88 1009.3
20260509093847 47 151 5.0 7.0 0.00 0.00 0.00 87 1009.1
20260509093344 47 176 5.0 10.0 0.00 0.00 0.00 88 1009.2
20260509092842 46 142 4.0 6.0 0.00 0.00 0.00 87 1009.2
20260509092340 46 140 3.0 4.0 0.00 0.00 0.00 87 1009.2
20260509091838 46 196 6.0 9.0 0.00 0.00 0.00 87 1009.1
20260509091334 47 206 5.0 7.0 0.00 0.00 0.00 86 1009.0
20260509090832 47 192 4.0 7.0 0.00 0.00 0.00 86 1009.0
20260509090329 47 198 5.0 9.0 0.00 0.00 0.00 86 1009.4
20260509085826 47 219 4.0 6.0 0.00 0.00 0.00 86 1009.0
20260509085323 47 202 2.0 3.0 0.00 0.00 0.00 86 1008.9
20260509084820 46 167 4.0 4.0 0.00 0.00 0.00 86 1009.1
20260509084317 46 178 2.0 6.0 0.00 0.00 0.00 86 1009.1
20260509083814 46 155 2.0 4.0 0.00 0.00 0.00 86 1008.8
20260509083311 46 170 2.0 4.0 0.00 0.00 0.00 85 1009.3
20260509082808 46 170 2.0 4.0 0.00 0.00 0.00 85 1009.3
20260509082307 46 204 4.0 6.0 0.00 0.00 0.00 86 1009.3
20260509081801 46 197 4.0 6.0 0.00 0.00 0.00 86 1009.5
20260509081259 46 198 3.0 3.0 0.00 0.00 0.00 85 1009.6
20260509080757 46 166 3.0 4.0 0.00 0.00 0.00 85 1009.3
20260509080254 46 162 3.0 3.0 0.00 0.00 0.00 85 1009.4
20260509075752 46 186 3.0 3.0 0.00 0.00 0.00 84 1009.5
20260509075249 46 172 3.0 4.0 0.00 0.00 0.00 84 1009.6
20260509074746 46 180 2.0 4.0 0.00 0.00 0.00 83 1009.7
20260509074244 46 156 3.0 4.0 0.00 0.00 0.00 82 1009.6
20260509073740 46 158 3.0 6.0 0.00 0.00 0.00 82 1009.9
20260509073236 46 161 2.0 3.0 0.00 0.00 0.00 81 1009.7
20260509072733 46 154 3.0 4.0 0.00 0.00 0.00 81 1010.0
20260509072230 46 158 2.0 4.0 0.00 0.00 0.00 79 1009.9
20260509071727 46 215 4.0 6.0 0.00 0.00 0.00 78 1009.6
20260509071224 46 148 3.0 4.0 0.00 0.00 0.00 77 1010.0
20260509070721 46 165 4.0 8.0 0.00 0.00 0.00 77 1009.9
20260509070217 46 177 4.0 6.0 0.00 0.00 0.00 75 1010.1
20260509065713 46 117 6.0 8.0 0.00 0.00 0.00 73 1010.2
20260509065209 46 137 5.0 7.0 0.00 0.00 0.00 71 1010.0
20260509064706 46 139 5.0 8.0 0.00 0.00 0.00 70 1010.2
20260509064204 46 181 5.0 6.0 0.00 0.00 0.00 70 1010.1
20260509063701 46 178 3.0 7.0 0.00 0.00 0.00 69 1010.2
20260509063157 46 141 4.0 6.0 0.00 0.00 0.00 68 1010.2
20260509062654 46 136 5.0 7.0 0.00 0.00 0.00 69 1010.5
20260509062152 45 148 5.0 6.0 0.00 0.00 0.00 68 1010.2
20260509061648 45 149 5.0 8.0 0.00 0.00 0.00 69 1010.4
20260509061146 45 150 3.0 3.0 0.00 0.00 0.00 68 1010.6
20260509060644 45 156 4.0 4.0 0.00 0.00 0.00 67 1010.7
20260509060139 45 198 1.0 2.0 0.00 0.00 0.00 65 1010.8
20260509055635 45 228 0.0 1.0 0.00 0.00 0.00 65 1010.7
20260509055131 45 190 0.0 1.0 0.00 0.00 0.00 66 1010.6
20260509054628 44 184 1.0 2.0 0.00 0.00 0.00 66 1010.6
20260509054125 44 161 2.0 3.0 0.00 0.00 0.00 67 1010.7
20260509053624 44 188 2.0 3.0 0.00 0.00 0.00 68 1011.1
20260509053120 44 155 2.0 2.0 0.00 0.00 0.00 68 1010.9
20260509052618 44 172 1.0 2.0 0.00 0.00 0.00 68 1011.0
20260509052116 44 183 1.0 2.0 0.00 0.00 0.00 67 1011.1
20260509051614 44 186 0.0 0.0 0.00 0.00 0.00 67 1011.1
20260509051110 44 283 0.0 0.0 0.00 0.00 0.00 66 1011.2
20260509050608 44 300 0.0 0.0 0.00 0.00 0.00 67 1010.9
20260509045601 43 69 0.0 0.0 0.00 0.00 0.00 69 1011.1
20260509045058 43 307 0.0 0.0 0.00 0.00 0.00 68 1010.9
20260509044556 44 258 0.0 0.0 0.00 0.00 0.00 67 1011.1
20260509044053 44 253 0.0 0.0 0.00 0.00 0.00 66 1010.9
20260509043549 44 96 0.0 0.0 0.00 0.00 0.00 66 1010.8
20260509043045 46 116 0.0 0.0 0.00 0.00 0.00 64 1010.9
20260509042541 46 128 0.0 2.0 0.00 0.00 0.00 62 1011.0
20260509042038 46 133 1.0 2.0 0.00 0.00 0.00 63 1011.1
20260509041534 45 112 2.0 3.0 0.00 0.00 0.00 64 1011.1
20260509041032 45 114 2.0 3.0 0.00 0.00 0.00 64 1011.0
20260509040530 45 120 2.0 4.0 0.00 0.00 0.00 63 1010.9
20260509040027 45 135 2.0 3.0 0.00 0.07 0.07 64 1011.1
20260509035524 45 119 4.0 4.0 0.00 0.07 0.07 64 1011.1
20260509035020 44 121 4.0 4.0 0.00 0.07 0.07 66 1011.0
20260509034519 44 111 3.0 3.0 0.00 0.07 0.07 67 1011.2
20260509034015 45 98 2.0 2.0 0.00 0.07 0.07 66 1011.3
20260509033512 45 91 1.0 3.0 0.00 0.07 0.07 65 1011.2
20260509033009 44 96 3.0 4.0 0.00 0.07 0.07 64 1011.1
20260509032506 45 95 3.0 3.0 0.00 0.07 0.07 65 1011.2
20260509032004 45 111 2.0 3.0 0.00 0.07 0.07 64 1011.6
20260509031501 45 105 4.0 4.0 0.00 0.07 0.07 63 1011.2
20260509030958 45 118 5.0 6.0 0.00 0.07 0.07 63 1011.6
20260509030456 44 91 2.0 2.0 0.00 0.07 0.07 65 1011.3
20260509025953 44 91 1.0 2.0 0.00 0.07 0.07 67 1011.4
20260509025449 45 93 2.0 3.0 0.00 0.07 0.07 66 1011.3
20260509024944 46 84 2.0 3.0 0.00 0.07 0.07 65 1011.3
20260509024440 45 95 5.0 6.0 0.00 0.07 0.07 64 1011.3
20260509023937 45 95 4.0 4.0 0.00 0.07 0.07 66 1011.2
20260509023434 46 86 2.0 3.0 0.00 0.07 0.07 66 1011.4
20260509022931 45 99 3.0 3.0 0.00 0.07 0.07 65 1011.4
20260509022428 45 123 3.0 3.0 0.00 0.07 0.07 66 1011.5
20260509021925 45 95 2.0 3.0 0.00 0.07 0.07 66 1011.4
20260509021422 45 107 1.0 2.0 0.00 0.07 0.07 65 1011.6
20260509020920 45 96 2.0 3.0 0.00 0.07 0.07 65 1011.7
20260509020418 45 91 2.0 2.0 0.00 0.07 0.07 64 1011.6
20260509015915 46 96 3.0 3.0 0.00 0.07 0.07 63 1011.6
20260509015414 46 105 2.0 3.0 0.00 0.07 0.07 63 1011.3
20260509014909 46 89 3.0 4.0 0.00 0.07 0.07 62 1011.5
20260509014406 46 108 1.0 3.0 0.00 0.07 0.07 60 1011.4
20260509013903 46 115 2.0 3.0 0.00 0.07 0.07 60 1011.3
20260509013400 47 86 2.0 3.0 0.00 0.07 0.07 59 1011.3
20260509012855 46 87 4.0 6.0 0.00 0.07 0.07 59 1011.3
20260509012352 46 77 2.0 3.0 0.00 0.07 0.07 58 1011.1
20260509011850 46 105 5.0 6.0 0.00 0.07 0.07 60 1011.2
20260509011347 46 87 3.0 4.0 0.00 0.07 0.07 58 1011.0
20260509010845 47 108 2.0 4.0 0.00 0.07 0.07 57 1011.0
20260509010342 46 86 3.0 3.0 0.00 0.07 0.07 59 1010.8
20260509005839 46 103 3.0 4.0 0.00 0.07 0.07 59 1011.0
20260509005337 47 91 2.0 4.0 0.00 0.07 0.07 56 1011.0
20260509004837 47 79 2.0 4.0 0.00 0.07 0.07 57 1010.9
20260509004333 47 94 4.0 4.0 0.00 0.07 0.07 56 1010.7
20260509003831 47 82 1.0 3.0 0.00 0.07 0.07 56 1010.7
20260509003329 47 69 2.0 2.0 0.00 0.07 0.07 55 1010.6
20260509002826 47 91 3.0 3.0 0.00 0.07 0.07 57 1010.5
20260509002323 47 93 3.0 4.0 0.00 0.07 0.07 56 1010.3
20260509001821 48 82 3.0 4.0 0.00 0.07 0.07 54 1010.5
20260509001316 48 124 2.0 3.0 0.00 0.07 0.07 56 1010.6
20260509000814 48 91 3.0 4.0 0.00 0.07 0.07 54 1010.5
20260509000312 48 81 3.0 6.0 0.00 0.07 0.07 54 1010.4
20260508235803 48 81 2.0 3.0 0.00 0.07 0.07 55 1010.3
20260508235300 49 97 2.0 3.0 0.00 0.07 0.07 53 1010.2
20260508234757 49 95 2.0 3.0 0.00 0.07 0.07 52 1010.4
20260508234253 50 93 2.0 3.0 0.00 0.07 0.07 52 1010.3
20260508233752 50 86 3.0 4.0 0.00 0.07 0.07 50 1010.2
20260508233250 51 86 1.0 3.0 0.00 0.07 0.07 50 1010.1
20260508232747 51 126 2.0 4.0 0.00 0.07 0.07 49 1010.2
20260508232243 51 114 1.0 2.0 0.00 0.07 0.07 48 1010.0
20260508231742 51 110 2.0 3.0 0.00 0.07 0.07 49 1010.0
20260508231238 52 93 1.0 4.0 0.00 0.07 0.07 48 1010.1
20260508230735 53 26 2.0 3.0 0.00 0.07 0.07 48 1009.9
20260508230231 52 12 0.0 4.0 0.00 0.07 0.07 48 1010.0
20260508225729 52 56 2.0 3.0 0.00 0.07 0.07 47 1010.0
20260508225225 53 69 2.0 3.0 0.00 0.07 0.07 48 1010.0
20260508224723 53 72 1.0 1.0 0.00 0.07 0.07 48 1010.3
20260508224220 53 356 3.0 4.0 0.00 0.07 0.07 46 1010.1
20260508223718 53 53 1.0 3.0 0.00 0.07 0.07 48 1010.2
20260508223215 53 42 2.0 3.0 0.00 0.07 0.07 50 1010.1
20260508222712 53 43 2.0 3.0 0.00 0.07 0.07 48 1010.0
20260508222210 54 272 2.0 6.0 0.00 0.07 0.07 48 1010.0
20260508221706 55 31 2.0 4.0 0.00 0.07 0.07 46 1010.0
20260508221201 54 250 0.0 2.0 0.00 0.07 0.07 46 1010.0
20260508220658 54 278 0.0 3.0 0.00 0.07 0.07 45 1010.1
20260508220155 55 299 6.0 9.0 0.00 0.07 0.07 45 1009.7
20260508215651 55 313 4.0 6.0 0.00 0.07 0.07 50 1010.0
20260508215148 56 291 3.0 10.0 0.00 0.07 0.07 44 1010.3
20260508214645 56 299 2.0 2.0 0.00 0.07 0.07 44 1010.1
20260508214142 55 344 1.0 4.0 0.00 0.07 0.07 42 1010.0
20260508213639 56 244 4.0 7.0 0.00 0.07 0.07 44 1010.2
20260508213135 55 300 4.0 9.0 0.00 0.07 0.07 43 1010.2
20260508212632 55 303 2.0 6.0 0.00 0.07 0.07 42 1010.3
20260508212128 55 5 3.0 7.0 0.00 0.07 0.07 43 1010.4
20260508211623 56 297 4.0 6.0 0.00 0.07 0.07 43 1010.3
20260508211120 55 289 1.0 4.0 0.00 0.07 0.07 48 1010.3
20260508210617 54 271 1.0 6.0 0.00 0.07 0.07 44 1010.4
20260508210114 53 294 2.0 4.0 0.00 0.07 0.07 47 1010.5
20260508205611 53 289 4.0 4.0 0.00 0.07 0.07 46 1010.5
20260508205108 52 235 1.0 2.0 0.00 0.07 0.07 48 1010.6
20260508204604 52 262 3.0 4.0 0.00 0.07 0.07 48 1010.3
20260508204100 52 316 5.0 6.0 0.00 0.07 0.07 49 1010.5
20260508203556 53 302 3.0 4.0 0.00 0.07 0.07 46 1010.5
20260508203052 54 307 4.0 7.0 0.00 0.07 0.07 45 1010.5
20260508202549 54 246 3.0 3.0 0.00 0.07 0.07 48 1010.6
20260508202047 53 206 2.0 7.0 0.00 0.07 0.07 46 1010.6
20260508201543 53 296 4.0 7.0 0.00 0.07 0.07 50 1010.8
20260508201039 52 302 4.0 7.0 0.00 0.07 0.07 48 1010.7
20260508200537 52 323 1.0 4.0 0.00 0.07 0.07 52 1010.8
20260508200032 51 17 2.0 6.0 0.00 0.07 0.07 49 1010.8
20260508195529 52 302 5.0 8.0 0.00 0.07 0.07 46 1010.9
20260508195025 53 321 7.0 11.0 0.00 0.07 0.07 46 1010.9
20260508194523 53 320 9.0 17.0 0.00 0.07 0.07 46 1011.0
20260508194020 54 320 2.0 4.0 0.00 0.07 0.07 44 1011.1
20260508193516 53 291 4.0 8.0 0.00 0.07 0.07 47 1011.1
20260508193013 53 311 7.0 11.0 0.00 0.07 0.07 46 1011.2
20260508192509 54 286 6.0 7.0 0.00 0.07 0.07 48 1011.1
20260508192007 53 356 2.0 4.0 0.00 0.07 0.07 51 1011.2
20260508191503 54 269 6.0 7.0 0.00 0.07 0.07 48 1011.0
20260508191000 53 287 3.0 7.0 0.00 0.07 0.07 53 1011.4
20260508190458 53 288 6.0 11.0 0.00 0.07 0.07 49 1011.4
20260508185953 53 303 4.0 8.0 0.00 0.07 0.07 48 1011.5
20260508185451 53 288 1.0 4.0 0.00 0.07 0.07 51 1011.3
20260508184948 53 297 6.0 11.0 0.00 0.07 0.07 52 1011.3
20260508184446 52 208 3.0 9.0 0.00 0.07 0.07 55 1011.6
20260508183942 53 299 4.0 7.0 0.00 0.07 0.07 54 1011.6
20260508183439 52 281 2.0 3.0 0.00 0.07 0.07 55 1011.5
20260508182934 50 324 3.0 7.0 0.00 0.07 0.07 55 1011.5
20260508182432 50 323 5.0 9.0 0.00 0.07 0.07 58 1011.7
20260508181931 50 305 4.0 8.0 0.00 0.07 0.07 57 1011.8
20260508181429 51 294 7.0 9.0 0.00 0.07 0.07 57 1011.8
20260508180926 51 298 6.0 8.0 0.00 0.07 0.07 57 1011.8
20260508180423 51 302 4.0 10.0 0.00 0.07 0.07 57 1011.8
20260508175919 51 305 10.0 10.0 0.00 0.07 0.07 57 1012.2
20260508175416 50 292 4.0 9.0 0.00 0.07 0.07 58 1012.0
20260508174914 50 286 9.0 13.0 0.00 0.07 0.07 60 1012.2
20260508174411 49 310 7.0 10.0 0.00 0.07 0.07 63 1012.4
20260508173907 48 244 4.0 14.0 0.00 0.07 0.07 63 1012.2
20260508173405 50 225 7.0 9.0 0.00 0.07 0.07 66 1012.4
20260508172900 49 203 6.0 9.0 0.00 0.07 0.07 67 1012.4
20260508172358 48 325 4.0 13.0 0.00 0.07 0.07 69 1012.5
20260508171854 48 250 3.0 11.0 0.00 0.07 0.07 69 1012.3
20260508171350 47 232 8.0 9.0 0.00 0.07 0.07 73 1012.4
20260508170847 47 248 6.0 8.0 0.00 0.07 0.07 69 1012.8
20260508170345 47 328 5.0 8.0 0.00 0.07 0.07 73 1012.6
20260508165841 46 239 4.0 7.0 0.00 0.07 0.07 74 1012.5
20260508165339 46 200 2.0 7.0 0.00 0.07 0.07 77 1012.6
20260508164834 46 275 3.0 7.0 0.00 0.07 0.07 70 1012.6
20260508164332 45 329 4.0 8.0 0.00 0.07 0.07 78 1012.8
20260508163830 45 221 1.0 9.0 0.00 0.07 0.07 75 1012.8
20260508163327 45 287 4.0 9.0 0.00 0.07 0.07 75 1012.8
20260508162822 45 191 3.0 9.0 0.00 0.07 0.07 75 1013.0
20260508162319 45 271 6.0 8.0 0.00 0.07 0.07 74 1012.9
20260508161817 45 216 8.0 10.0 0.00 0.07 0.07 75 1013.0
20260508161314 45 232 4.0 6.0 0.00 0.07 0.07 72 1012.8
20260508160811 45 231 3.0 3.0 0.00 0.07 0.07 75 1012.9
20260508160310 45 221 2.0 3.0 0.00 0.07 0.07 76 1012.8
20260508155806 45 337 0.0 1.0 0.00 0.07 0.07 76 1013.0
20260508155306 44 238 2.0 3.0 0.00 0.07 0.07 78 1012.9
20260508154759 43 222 2.0 3.0 0.00 0.07 0.07 81 1013.1
20260508154258 42 228 1.0 2.0 0.00 0.07 0.07 83 1012.7
20260508153753 42 312 2.0 2.0 0.00 0.07 0.07 84 1012.9
20260508153251 42 282 1.0 4.0 0.00 0.07 0.07 88 1012.9
20260508152747 43 330 2.0 6.0 0.00 0.07 0.07 88 1012.7
20260508152243 41 232 0.0 2.0 0.00 0.07 0.07 89 1012.7
20260508151740 40 253 0.0 1.0 0.00 0.07 0.07 91 1012.9
20260508151237 41 316 4.0 6.0 0.00 0.07 0.07 91 1013.0
20260508150733 39 296 1.0 2.0 0.00 0.07 0.07 92 1012.8
20260508150230 39 261 2.0 3.0 0.00 0.07 0.07 91 1012.8
20260508145726 40 293 1.0 4.0 0.00 0.07 0.07 91 1012.7
20260508145222 40 333 1.0 2.0 0.00 0.07 0.07 94 1012.8
20260508144720 40 251 2.0 3.0 0.00 0.07 0.07 93 1012.8
20260508144218 38 284 2.0 6.0 0.00 0.07 0.07 94 1012.8
20260508143715 38 257 0.0 1.0 0.00 0.07 0.07 95 1012.6
20260508143212 37 271 0.0 1.0 0.00 0.07 0.07 95 1012.6
20260508142708 37 265 0.0 2.0 0.00 0.07 0.07 95 1012.8
20260508142205 37 334 2.0 2.0 0.00 0.07 0.07 95 1012.8
20260508141701 36 96 1.0 2.0 0.00 0.07 0.07 95 1012.7
20260508141159 36 96 1.0 2.0 0.00 0.07 0.07 95 1012.3
20260508140656 35 109 3.0 3.0 0.00 0.07 0.07 94 1012.5
20260508140153 35 61 2.0 2.0 0.07 0.07 0.07 94 1012.9
20260508135649 35 315 0.0 1.0 0.00 0.06 0.06 94 1013.0
20260508135144 35 325 1.0 2.0 0.00 0.06 0.06 93 1013.0
20260508134641 36 315 2.0 3.0 0.00 0.06 0.06 93 1013.0
20260508134138 36 309 2.0 3.0 0.00 0.06 0.06 93 1012.6
20260508133635 36 296 1.0 2.0 0.00 0.06 0.06 93 1012.5
20260508133132 36 301 1.0 1.0 0.00 0.06 0.06 93 1012.2
20260508132630 36 291 1.0 1.0 0.05 0.06 0.06 93 1012.5
20260508132127 36 269 1.0 1.0 0.05 0.06 0.06 92 1012.5
20260508131622 36 331 1.0 2.0 0.07 0.05 0.05 92 1012.6
20260508131119 36 312 2.0 3.0 0.07 0.05 0.05 92 1012.6
20260508130616 36 290 1.0 3.0 0.00 0.04 0.04 91 1012.7
20260508130113 36 278 1.0 2.0 0.05 0.04 0.04 91 1012.5
20260508125613 36 279 1.0 3.0 0.05 0.04 0.04 90 1012.6
20260508125111 36 291 1.0 3.0 0.07 0.03 0.03 90 1012.5
20260508124609 37 307 3.0 4.0 0.07 0.03 0.03 89 1012.4
20260508124106 37 277 2.0 7.0 0.05 0.02 0.02 88 1012.5
20260508123604 37 299 3.0 7.0 0.12 0.02 0.02 86 1012.5
20260508123101 38 300 5.0 9.0 0.07 0.01 0.01 85 1012.2
20260508122557 39 303 4.0 7.0 0.00 0.00 0.00 83 1012.2
20260508122055 40 315 3.0 3.0 0.00 0.00 0.00 83 1011.9
20260508121553 40 260 1.0 4.0 0.00 0.00 0.00 82 1011.8
20260508121050 40 278 2.0 3.0 0.00 0.00 0.00 81 1011.6
20260508120548 40 280 2.0 3.0 0.00 0.00 0.00 79 1011.4
20260508120046 40 250 1.0 3.0 0.00 0.00 0.00 77 1011.0
20260508115543 40 215 2.0 2.0 0.00 0.00 0.00 78 1010.9
20260508115039 40 207 2.0 3.0 0.00 0.00 0.00 78 1011.0